Location: Kershaw
(34.5481°N, 80.5823°W)
Time: 09:24:47
(UTC+00:00)

Explorer 7 - Pass Details

Date: 10 October 2022
Orbit: 481 x 665 km, 50.3° (Epoch: 28 November)

Event Time Altitude Azimuth Distance (km) Brightness Sun altitude
Rises 14:51:53 0° 285° (WNW) 2,985 10.1 37.5°
Reaches altitude 10° 14:55:09 10° 308° (NW) 2,086 9.4 37.9°
Maximum altitude 14:58:01 15° 344° (NNW) 1,752 9.1 38.3°
Drops below altitude 10° 15:00:52 10° 21° (NNE) 2,085 9.6 38.7°
Sets 15:04:09 0° 44° (NE) 2,985 10.5 39.2°
